Meteo pe oră la Alio

Astăzi, 17 Ianuarie, Duminică

Timp Temperatura Precipitaţii Vânt Presiune Umiditate
00:00 +3°C° 0 mm 3 m/s 743 mmHg 66%
01:00 +3°C° 0 mm 3 m/s 743 mmHg 68%
02:00 +3°C° 0 mm 3 m/s 743 mmHg 70%
03:00 +2°C° 0 mm 3 m/s 742 mmHg 73%
04:00 +2°C° 0 mm 3 m/s 742 mmHg 72%
05:00 +2°C° 0 mm 3 m/s 742 mmHg 71%
06:00 +2°C° 0 mm 3 m/s 742 mmHg 68%
07:00 +3°C° 0 mm 3 m/s 742 mmHg 68%
08:00 +4°C° 0 mm 4 m/s 742 mmHg 68%
09:00 +5°C° 0 mm 4 m/s 742 mmHg 68%
10:00 +7°C° 0 mm 4 m/s 741 mmHg 68%
11:00 +8°C° 0 mm 4 m/s 741 mmHg 68%
12:00 +11°C° 0 mm 4 m/s 741 mmHg 69%
13:00 +11°C° 0 mm 4 m/s 741 mmHg 69%
14:00 +12°C° 0 mm 4 m/s 741 mmHg 69%
15:00 +13°C° 0 mm 5 m/s 740 mmHg 69%
16:00 +11°C° 0 mm 4 m/s 741 mmHg 73%
17:00 +10°C° 0 mm 3 m/s 741 mmHg 77%
18:00 +8°C° 0 mm 2 m/s 741 mmHg 81%
19:00 +8°C° 0 mm 2 m/s 742 mmHg 81%
20:00 +8°C° 0 mm 2 m/s 742 mmHg 82%
21:00 +8°C° 0 mm 1 m/s 743 mmHg 82%
22:00 +8°C° 0 mm 1 m/s 743 mmHg 83%
23:00 +8°C° 0 mm 1 m/s 744 mmHg 84%

Mâine, 18 Ianuarie, Luni

Timp Temperatura Precipitaţii Vânt Presiune Umiditate
00:00 +7°C° 0 mm 2 m/s 744 mmHg 85%
01:00 +6°C° 0 mm 2 m/s 744 mmHg 86%
02:00 +6°C° 0 mm 2 m/s 744 mmHg 87%
03:00 +6°C° 0 mm 2 m/s 744 mmHg 87%
04:00 +6°C° 0 mm 2 m/s 744 mmHg 88%
05:00 +5°C° 0 mm 2 m/s 744 mmHg 89%
06:00 +5°C° 0 mm 2 m/s 744 mmHg 89%
07:00 +6°C° 0 mm 2 m/s 744 mmHg 88%
08:00 +6°C° 0 mm 2 m/s 745 mmHg 86%
09:00 +7°C° 0 mm 2 m/s 745 mmHg 84%
10:00 +8°C° 0 mm 2 m/s 745 mmHg 80%
11:00 +8°C° 0 mm 2 m/s 745 mmHg 77%
12:00 +9°C° 0 mm 2 m/s 745 mmHg 73%
13:00 +9°C° 0 mm 2 m/s 744 mmHg 72%
14:00 +10°C° 0 mm 2 m/s 744 mmHg 70%
15:00 +10°C° 0 mm 2 m/s 743 mmHg 69%
16:00 +8°C° 0 mm 2 m/s 744 mmHg 73%
17:00 +7°C° 0 mm 2 m/s 744 mmHg 77%
18:00 +6°C° 0 mm 2 m/s 744 mmHg 81%
19:00 +5°C° 0 mm 2 m/s 744 mmHg 80%
20:00 +5°C° 0 mm 2 m/s 744 mmHg 79%
21:00 +6°C° 0 mm 1 m/s 744 mmHg 78%
22:00 +6°C° 0 mm 1 m/s 744 mmHg 77%
23:00 +6°C° 0 mm 1 m/s 744 mmHg 76%

Poimâine, 19 Ianuarie, Marţi

Timp Temperatura Precipitaţii Vânt Presiune Umiditate
00:00 +5°C° 0 mm 1 m/s 744 mmHg 75%
01:00 +5°C° 0 mm 1 m/s 744 mmHg 75%
02:00 +4°C° 0 mm 2 m/s 743 mmHg 76%
03:00 +4°C° 0 mm 2 m/s 743 mmHg 76%
04:00 +4°C° 0 mm 2 m/s 743 mmHg 77%
05:00 +5°C° 0 mm 1 m/s 742 mmHg 78%
06:00 +5°C° 0 mm 1 m/s 742 mmHg 79%
07:00 +6°C° 0 mm 1 m/s 742 mmHg 76%
08:00 +7°C° 0 mm 1 m/s 742 mmHg 73%
09:00 +8°C° 0 mm 1 m/s 742 mmHg 70%
10:00 +9°C° 0 mm 1 m/s 742 mmHg 66%
11:00 +11°C° 0 mm 1 m/s 742 mmHg 62%
12:00 +12°C° 0 mm 1 m/s 742 mmHg 58%
13:00 +12°C° 0 mm 1 m/s 741 mmHg 60%
14:00 +12°C° 0 mm 1 m/s 740 mmHg 62%
15:00 +12°C° 0 mm 1 m/s 739 mmHg 63%
16:00 +11°C° 0 mm 1 m/s 739 mmHg 71%
17:00 +9°C° 0 mm 1 m/s 739 mmHg 78%
18:00 +8°C° 0 mm 1 m/s 739 mmHg 85%
19:00 +8°C° 0 mm 1 m/s 739 mmHg 86%
20:00 +7°C° 0 mm 1 m/s 739 mmHg 87%
21:00 +7°C° 0 mm 1 m/s 739 mmHg 88%
22:00 +7°C° 0 mm 1 m/s 739 mmHg 87%
23:00 +7°C° 0 mm 1 m/s 738 mmHg 86%

20 Ianuarie, Miercuri

Timp Temperatura Precipitaţii Vânt Presiune Umiditate
00:00 +7°C° 0 mm 1 m/s 738 mmHg 85%
01:00 +7°C° 0 mm 1 m/s 737 mmHg 85%
02:00 +7°C° 0 mm 1 m/s 737 mmHg 85%
03:00 +6°C° 0 mm 1 m/s 736 mmHg 84%
04:00 +6°C° 0 mm 1 m/s 736 mmHg 83%
05:00 +6°C° 0 mm 1 m/s 735 mmHg 81%
06:00 +6°C° 0 mm 1 m/s 735 mmHg 79%
07:00 +7°C° 0 mm 1 m/s 735 mmHg 76%
08:00 +8°C° 0 mm 1 m/s 734 mmHg 73%
09:00 +9°C° 0 mm 1 m/s 734 mmHg 69%
10:00 +10°C° 0 mm 1 m/s 734 mmHg 64%
11:00 +11°C° 0 mm 1 m/s 734 mmHg 58%
12:00 +13°C° 0 mm 2 m/s 733 mmHg 52%
13:00 +12°C° 0 mm 2 m/s 733 mmHg 54%
14:00 +12°C° 0 mm 2 m/s 732 mmHg 56%
15:00 +12°C° 0 mm 2 m/s 731 mmHg 58%
16:00 +10°C° 0.1 mm 2 m/s 731 mmHg 67%
17:00 +9°C° 0.1 mm 2 m/s 731 mmHg 75%
18:00 +8°C° 0.1 mm 2 m/s 731 mmHg 83%
19:00 +8°C° 0.5 mm 2 m/s 731 mmHg 85%
20:00 +8°C° 0.5 mm 2 m/s 731 mmHg 87%
21:00 +8°C° 0.5 mm 2 m/s 731 mmHg 89%
22:00 +8°C° 0 mm 2 m/s 731 mmHg 87%
23:00 +8°C° 0 mm 3 m/s 731 mmHg 85%

21 Ianuarie, Joi

Timp Temperatura Precipitaţii Vânt Presiune Umiditate
00:00 +8°C° 0 mm 3 m/s 731 mmHg 83%
01:00 +8°C° 0 mm 3 m/s 731 mmHg 82%
02:00 +8°C° 0 mm 3 m/s 731 mmHg 81%
03:00 +7°C° 0 mm 4 m/s 731 mmHg 80%
04:00 +8°C° 0 mm 3 m/s 731 mmHg 82%
05:00 +8°C° 0 mm 3 m/s 731 mmHg 83%
06:00 +8°C° 0 mm 3 m/s 731 mmHg 85%
07:00 +7°C° 0 mm 4 m/s 732 mmHg 83%
08:00 +8°C° 0 mm 4 m/s 732 mmHg 81%
09:00 +10°C° 0 mm 4 m/s 733 mmHg 79%
10:00 +10°C° 0 mm 5 m/s 733 mmHg 74%
11:00 +12°C° 0 mm 5 m/s 733 mmHg 70%
12:00 +13°C° 0 mm 6 m/s 733 mmHg 66%
13:00 +13°C° 0 mm 6 m/s 733 mmHg 64%
14:00 +14°C° 0 mm 6 m/s 733 mmHg 63%
15:00 +14°C° 0 mm 6 m/s 732 mmHg 61%
16:00 +13°C° 0 mm 5 m/s 732 mmHg 66%
17:00 +12°C° 0 mm 5 m/s 732 mmHg 71%
18:00 +11°C° 0 mm 4 m/s 732 mmHg 76%
19:00 +11°C° 0.2 mm 4 m/s 732 mmHg 77%
20:00 +11°C° 0.2 mm 4 m/s 731 mmHg 77%
21:00 +11°C° 0.2 mm 4 m/s 731 mmHg 78%
22:00 +10°C° 0.2 mm 5 m/s 730 mmHg 79%
23:00 +10°C° 0.2 mm 5 m/s 730 mmHg 80%

22 Ianuarie, Vineri

Timp Temperatura Precipitaţii Vânt Presiune Umiditate
00:00 +10°C° 0.2 mm 6 m/s 730 mmHg 81%
01:00 +10°C° 0.4 mm 6 m/s 729 mmHg 82%
02:00 +10°C° 0.4 mm 6 m/s 729 mmHg 84%
03:00 +10°C° 0.4 mm 6 m/s 728 mmHg 86%
04:00 +10°C° 0.3 mm 6 m/s 728 mmHg 86%
05:00 +10°C° 0.3 mm 6 m/s 728 mmHg 86%
06:00 +10°C° 0.3 mm 6 m/s 728 mmHg 86%
07:00 +10°C° 0 mm 6 m/s 729 mmHg 83%
08:00 +10°C° 0 mm 6 m/s 729 mmHg 79%
09:00 +11°C° 0 mm 6 m/s 729 mmHg 76%
10:00 +13°C° 0 mm 6 m/s 729 mmHg 69%
11:00 +14°C° 0 mm 7 m/s 729 mmHg 62%
12:00 +15°C° 0 mm 8 m/s 728 mmHg 55%
13:00 +14°C° 0.8 mm 7 m/s 728 mmHg 58%
14:00 +12°C° 0.8 mm 7 m/s 727 mmHg 60%
15:00 +11°C° 0.8 mm 6 m/s 727 mmHg 62%
16:00 +10°C° 0 mm 8 m/s 727 mmHg 63%
17:00 +10°C° 0 mm 9 m/s 727 mmHg 63%
18:00 +8°C° 0 mm 11 m/s 727 mmHg 64%
19:00 +7°C° 0.1 mm 13 m/s 727 mmHg 66%
20:00 +6°C° 0.1 mm 14 m/s 728 mmHg 69%
21:00 +5°C° 0.1 mm 16 m/s 729 mmHg 71%
22:00 +4°C° 0 mm 15 m/s 730 mmHg 70%
23:00 +4°C° 0 mm 14 m/s 731 mmHg 69%
Arată mai mult

Formular de consimțământ

Meteoprog și furnizorii noștri de servicii pot stoca și accesa date personale, precum cookies, identificatori de dispozitiv sau alte tehnologii similare pe dispozitivul dumneavoastră și procesa astfel de date pentru a personaliza conținutul și reclamele, dar și pentru a oferi caracteristici de social media și pentru a analiza traficul.

  • Stocarea și/sau accesarea informațiilor pe dispozitivul dumneavoastră

    Cookies, identificatori de dispozitiv sau alte informații pot fi stocate sau accesate pe dispozitiv în scopurile indicate mai sus.

  • Reclame și conținut personalizat, evaluarea reclamelor și a conținutului, informații despre audiențe și dezvoltarea produselor

    Reclamele și conținutul pot fi personalizate pe baza unui profil. Pot fi adăugate date suplimentare pentru a personaliza mai bine reclamele și conținutul. Performanța reclamelor și conținutului poate fi măsurată. Pot fi obținute informații despre utilizatorii care au văzut reclamele și conținutul. Aceste date pot fi utilizate pentru a dezvolta sau îmbunătăți experiența utilizatorilor, sistemele și software-ul.

Dând clic pe ‘Sunt de acord’, permiteți utilizarea cookie-urilor menționate, a identificatorilor de dispozitiv, balizelor web sau altor tehnologii similare. Setările pot fi modificate din browser-ul dispozitivului dumneavoastră.

În anumite scopuri, interesele legitime pot prima asupra consimțământului. Puteți citi mai multe informații în acest sens în Politica privind Confidențialitatea Datelor și Cookie.